Current weather by "City, St" or "zip code"  
 

Current Conditions: FAITH

NULL


51.1 F

Last Updated on May 26 2024, 12:56 AM MDT
Humidity: 77%
Wind Speed: E 4.7 mph
Barometer 29.69 in
Dewpoint: 44.1 F
Visibility: NULL mi
Precip: --
Heat Index: NA
Wind Chill: NA
Current conditions at:

FAITH (KD07)

Lat: 45.03 Lon: 102.02

active severe weather and emergency alerts image image weather storm and storm spotter reports image weather observation monitoring service image
Active
Alerts
Storm Reports Obs
Monitoring

Sign-up For Email & Text Message Weather Alert Notification Services



Advertise Here

Observation History for FAITH


Time Wind
(mph)
Vis
(mi)
Weather Precip (in) Temperature (F) Relative
Humidity
Wind
Chill
(F)
Heat
Index
(F)
Pressure
Air Dwpt altimeter
(in)
sea level
(mb)
Rmks
12:56 AM MDT E 4.7 NULL NULL -- 51.1 44.1 77% NA NA 29.69 1005.4
10:56 PM MDT E 5.8 NULL NULL -- 51.1 45.0 79% NA NA 29.68 1005.1
06:56 PM MDT 6.9 NULL NULL -- 64.0 46.9 54% NA NA 29.68 1004.8
04:56 PM MDT E 6.9 NULL NULL -- 69.1 42.1 38% NA NA 29.63 1003.4
08:56 AM MDT 6.9 NULL NULL -- 57.9 46.9 67% NA NA 29.68 1004.8
07:56 AM MDT 4.7 NULL NULL -- 53.1 46.0 77% NA NA 29.68 1004.8
06:56 AM MDT 3.4 NULL NULL -- 48.0 44.1 86% 47.1 NA 29.68 1005.1
05:56 AM MDT NW 4.7 NULL NULL -- 41.0 39.0 93% 37.9 NA 29.68 1005.1
04:56 AM MDT 0.0 NULL NULL -- 43.0 39.9 89% NA NA 29.68 1005.1
03:56 AM MDT 0.0 NULL NULL -- 45.0 39.9 82% NA NA 29.68 1005.1
02:56 AM MDT 4.7 NULL NULL -- 43.0 39.9 89% 40.3 NA 29.69 1005.4
12:56 AM MDT 3.4 NULL NULL -- 46.0 39.0 76% 44.8 NA 29.71 1006.1
11:56 PM MDT 9.2 NULL NULL -- 48.9 39.0 69% 45.0 NA 29.72 1006.4
10:56 PM MDT 12.8 NULL NULL -- 50.0 39.0 66% NA NA 29.71 1006.1
08:56 PM MDT 8.1 NULL NULL -- 52.0 39.9 63% NA NA 29.70 1005.8
07:56 PM MDT SW 5.8 NULL NULL -- 55.9 43.0 62% NA NA 29.70 1005.8
05:56 PM MDT NW 9.2 NULL NULL -- 61.0 39.0 44% NA NA 29.71 1006.1
04:56 PM MDT 12.8 NULL NULL -- 63.0 41.0 45% NA NA 29.73 1006.8
03:56 PM MDT 12.8 NULL NULL -- 61.0 39.9 46% NA NA 29.74 1007.1
02:56 PM MDT 20.8 NULL Windy -- 60.1 39.0 46% NA NA 29.75 1007.5
01:56 PM MDT NW 23.0 NULL Windy -- 59.0 39.9 49% NA NA 29.76 1007.8
12:56 PM MDT NW 24.2 NULL Windy -- 55.9 42.1 60% NA NA 29.77 1008.1
10:56 AM MDT NW 25.3 NULL Windy -- 48.0 41.0 77% 40.1 NA 29.76 1007.8
09:56 AM MDT NW 27.7 NULL Breezy -- 46.0 41.0 82% 37.0 NA 29.74 1007.1

Regional Weather Observation


BUFFALO (K2WX)

NULL
51.1 F

HETTINGER (KHEI)

Clear
42.1 F

PHILIP (KPHP)

Clear
45.0 F

ELLSWORTH AFB (KRCA)

Clear
48.4 F

RAPID CITY (KRAP)

Clear
43.0 F

SPEARFISH/CLYDE (KSPF)

Mostly Cloudy
48.2 F

Advertise Here


Advertise Here